Time,TemperatureF,DewpointF,PressureIn,WindDirection,WindDirectionDegrees,WindSpeedMPH,WindSpeedGustMPH,Humidity,HourlyPrecipIn,Conditions,Clouds,dailyrainin,SolarRadiationWatts/m^2,SoftwareType,DateUTC
2013-04-15 00:00:00,56.8,40.8,30.05,South,178,0.0,0.0,55,0.00,,CLR,0.00,0.00,VWS V14.01,2013-04-15 04:00:00,
2013-04-15 00:02:00,56.6,40.6,30.06,South,178,0.0,0.0,55,0.00,,CLR,0.00,0.00,VWS V14.01,2013-04-15 04:02:00,
2013-04-15 00:07:00,56.5,41.0,30.06,South,178,0.0,0.0,56,0.00,,CLR,0.00,0.00,VWS V14.01,2013-04-15 04:07:00,
2013-04-15 00:12:00,56.5,41.5,30.06,South,178,0.0,0.0,57,0.00,,CLR,0.00,0.00,VWS V14.01,2013-04-15 04:12:00,
2013-04-15 00:17:00,56.3,41.7,30.05,South,178,0.0,0.0,58,0.00,,CLR,0.00,0.00,VWS V14.01,2013-04-15 04:17:00,
2013-04-15 00:22:00,56.2,41.6,30.05,South,178,0.0,0.0,58,0.00,,CLR,0.00,0.00,VWS V14.01,2013-04-15 04:22:00,
2013-04-15 00:28:00,56.0,41.5,30.05,WSW,258,0.0,2.0,58,0.00,,CLR,0.00,0.00,VWS V14.01,2013-04-15 04:28:00,
2013-04-15 00:33:00,55.9,41.8,30.06,WSW,258,0.0,0.0,59,0.00,,CLR,0.00,0.00,VWS V14.01,2013-04-15 04:33:00,
2013-04-15 00:38:00,55.9,41.8,30.06,WSW,258,0.0,0.0,59,0.00,,CLR,0.00,0.00,VWS V14.01,2013-04-15 04:38:00,
2013-04-15 00:43:00,55.7,41.2,30.06,WSW,258,0.0,0.0,58,0.00,,CLR,0.00,0.00,VWS V14.01,2013-04-15 04:43:00,
2013-04-15 00:48:00,55.9,41.8,30.06,WSW,257,0.0,2.0,59,0.00,,CLR,0.00,0.00,VWS V14.01,2013-04-15 04:48:00,
2013-04-15 00:53:00,55.7,41.6,30.06,WSW,257,0.0,2.0,59,0.00,,CLR,0.00,0.00,VWS V14.01,2013-04-15 04:53:00,
2013-04-15 00:58:00,55.7,41.6,30.06,WSW,257,0.0,2.0,59,0.00,,CLR,0.00,0.00,VWS V14.01,2013-04-15 04:58:00,
2013-04-15 01:03:00,55.7,41.6,30.07,WSW,257,0.0,0.0,59,0.00,,CLR,0.00,0.00,VWS V14.01,2013-04-15 05:03:00,
2013-04-15 01:08:00,55.7,41.6,30.07,WSW,257,0.0,0.0,59,0.00,,CLR,0.00,0.00,VWS V14.01,2013-04-15 05:08:00,
2013-04-15 01:14:00,55.7,41.2,30.07,WSW,257,0.0,0.0,58,0.00,,CLR,0.00,0.00,VWS V14.01,2013-04-15 05:14:00,
2013-04-15 01:19:00,55.7,41.6,30.06,WSW,257,0.0,0.0,59,0.00,,CLR,0.00,0.00,VWS V14.01,2013-04-15 05:19:00,
2013-04-15 01:24:00,55.6,42.0,30.06,WSW,257,0.0,0.0,60,0.00,,CLR,0.00,0.00,VWS V14.01,2013-04-15 05:24:00,
2013-04-15 01:29:00,55.3,41.7,30.06,WSW,257,0.0,0.0,60,0.00,,CLR,0.00,0.00,VWS V14.01,2013-04-15 05:29:00,
2013-04-15 01:34:00,55.2,41.1,30.06,WSW,257,0.0,0.0,59,0.00,,CLR,0.00,0.00,VWS V14.01,2013-04-15 05:34:00,
2013-04-15 01:39:00,55.2,42.0,30.06,WSW,257,0.0,0.0,61,0.00,,CLR,0.00,0.00,VWS V14.01,2013-04-15 05:39:00,
2013-04-15 01:44:00,55.0,42.2,30.06,WSW,257,0.0,0.0,62,0.00,,CLR,0.00,0.00,VWS V14.01,2013-04-15 05:44:00,
2013-04-15 01:49:00,54.7,42.0,30.06,WSW,257,0.0,0.0,62,0.00,,CLR,0.00,0.00,VWS V14.01,2013-04-15 05:49:00,
2013-04-15 01:55:00,54.7,42.0,30.06,WSW,257,0.0,0.0,62,0.00,,CLR,0.00,0.00,VWS V14.01,2013-04-15 05:55:00,
2013-04-15 02:00:00,54.7,42.8,30.06,WSW,257,0.0,0.0,64,0.00,,CLR,0.00,0.00,VWS V14.01,2013-04-15 06:00:00,
2013-04-15 02:05:00,54.6,43.1,30.05,WSW,257,0.0,0.0,65,0.00,,CLR,0.00,0.00,VWS V14.01,2013-04-15 06:05:00,
2013-04-15 02:10:00,54.4,42.9,30.05,WSW,257,0.0,0.0,65,0.00,,CLR,0.00,0.00,VWS V14.01,2013-04-15 06:10:00,
2013-04-15 02:15:00,54.3,43.6,30.05,WSW,257,0.0,0.0,67,0.00,,CLR,0.00,0.00,VWS V14.01,2013-04-15 06:15:00,
2013-04-15 02:20:00,54.1,43.4,30.05,WSW,257,0.0,0.0,67,0.00,,CLR,0.00,0.00,VWS V14.01,2013-04-15 06:20:00,
2013-04-15 02:25:00,53.8,43.1,30.05,WSW,257,0.0,0.0,67,0.00,,CLR,0.00,0.00,VWS V14.01,2013-04-15 06:25:00,
2013-04-15 02:30:00,53.7,43.4,30.05,WSW,257,0.0,0.0,68,0.00,,CLR,0.00,0.00,VWS V14.01,2013-04-15 06:30:00,
2013-04-15 02:35:00,53.5,42.8,30.05,WSW,257,0.0,0.0,67,0.00,,CLR,0.00,0.00,VWS V14.01,2013-04-15 06:35:00,
2013-04-15 02:40:00,53.5,42.4,30.05,WSW,257,0.0,0.0,66,0.00,,CLR,0.00,0.00,VWS V14.01,2013-04-15 06:40:00,
2013-04-15 02:45:00,53.4,42.3,30.05,WSW,257,0.0,1.0,66,0.00,,CLR,0.00,0.00,VWS V14.01,2013-04-15 06:45:00,
2013-04-15 02:50:00,53.4,41.9,30.06,ESE,120,0.0,1.0,65,0.00,,CLR,0.00,0.00,VWS V14.01,2013-04-15 06:50:00,
2013-04-15 02:55:00,53.4,42.3,30.06,South,176,0.0,2.0,66,0.00,,CLR,0.00,0.00,VWS V14.01,2013-04-15 06:55:00,
2013-04-15 03:00:00,53.2,42.2,30.06,South,176,0.0,2.0,66,0.00,,CLR,0.00,0.00,VWS V14.01,2013-04-15 07:00:00,
2013-04-15 03:41:00,53.4,42.3,30.06,SSW,199,0.0,0.0,66,0.00,,CLR,0.00,0.00,VWS V14.01,2013-04-15 07:41:00,
2013-04-15 03:42:00,53.4,42.3,30.06,SSW,199,0.0,0.0,66,0.00,,CLR,0.00,0.00,VWS V14.01,2013-04-15 07:42:00,
2013-04-15 03:47:00,53.2,42.5,30.07,SSW,199,0.0,0.0,67,0.00,,CLR,0.00,0.00,VWS V14.01,2013-04-15 07:47:00,
2013-04-15 03:48:00,53.2,42.5,30.07,SSW,199,0.0,0.0,67,0.00,,CLR,0.00,0.00,VWS V14.01,2013-04-15 07:48:00,
2013-04-15 03:49:00,53.2,42.5,30.07,SSW,199,0.0,0.0,67,0.00,,CLR,0.00,0.00,VWS V14.01,2013-04-15 07:49:00,
2013-04-15 03:51:00,53.2,42.5,30.07,SSW,199,0.0,0.0,67,0.00,,CLR,0.00,0.00,VWS V14.01,2013-04-15 07:51:00,
2013-04-15 03:56:00,53.2,43.3,30.07,SSW,199,0.0,0.0,69,0.00,,CLR,0.00,0.00,VWS V14.01,2013-04-15 07:56:00,
2013-04-15 04:01:00,53.1,42.8,30.07,SSW,199,0.0,0.0,68,0.00,,CLR,0.00,0.00,VWS V14.01,2013-04-15 08:01:00,
2013-04-15 04:07:00,53.2,42.5,30.07,SSW,199,0.0,1.0,67,0.00,,CLR,0.00,0.00,VWS V14.01,2013-04-15 08:07:00,
2013-04-15 04:12:00,53.4,42.7,30.07,SSW,210,2.0,3.0,67,0.00,,CLR,0.00,0.00,VWS V14.01,2013-04-15 08:12:00,
2013-04-15 04:17:00,53.7,42.2,30.07,SSW,198,2.0,5.0,65,0.00,,CLR,0.00,0.00,VWS V14.01,2013-04-15 08:17:00,
2013-04-15 04:22:00,54.3,43.2,30.07,South,191,0.0,0.0,66,0.00,,CLR,0.00,0.00,VWS V14.01,2013-04-15 08:22:00,
2013-04-15 04:27:00,53.7,44.2,30.07,SW,230,0.0,1.0,70,0.00,,CLR,0.00,0.00,VWS V14.01,2013-04-15 08:27:00,
2013-04-15 04:33:00,53.5,44.7,30.07,SW,230,0.0,0.0,72,0.00,,CLR,0.00,0.00,VWS V14.01,2013-04-15 08:33:00,
2013-04-15 04:37:00,53.4,44.6,30.07,SW,230,0.0,0.0,72,0.00,,CLR,0.00,0.00,VWS V14.01,2013-04-15 08:37:00,
2013-04-15 04:40:00,53.1,45.0,30.07,SW,230,1.0,1.0,74,0.00,,CLR,0.00,0.00,VWS V14.01,2013-04-15 08:40:00,
2013-04-15 04:41:00,52.9,45.2,30.07,SW,220,3.0,3.0,75,0.00,,CLR,0.00,0.00,VWS V14.01,2013-04-15 08:41:00,
2013-04-15 04:42:00,52.9,44.8,30.07,SSW,208,1.0,3.0,74,0.00,,CLR,0.00,0.00,VWS V14.01,2013-04-15 08:42:00,
2013-04-15 04:47:00,52.8,44.8,30.08,SSW,208,0.0,1.0,74,0.00,,CLR,0.00,0.00,VWS V14.01,2013-04-15 08:47:00,
2013-04-15 04:52:00,52.9,44.8,30.08,SSW,208,0.0,1.0,74,0.00,,CLR,0.00,0.00,VWS V14.01,2013-04-15 08:52:00,
2013-04-15 04:57:00,52.9,44.8,30.08,SSW,208,0.0,0.0,74,0.00,,CLR,0.00,0.00,VWS V14.01,2013-04-15 08:57:00,
2013-04-15 05:02:00,52.9,45.5,30.08,SSW,208,0.0,1.0,76,0.00,,CLR,0.00,0.00,VWS V14.01,2013-04-15 09:02:00,
2013-04-15 05:07:00,53.1,45.0,30.08,WSW,250,0.0,3.0,74,0.00,,CLR,0.00,0.00,VWS V14.01,2013-04-15 09:07:00,
2013-04-15 05:12:00,53.5,44.0,30.08,SW,217,1.0,1.0,70,0.00,,CLR,0.00,0.00,VWS V14.01,2013-04-15 09:12:00,
2013-04-15 05:17:00,54.1,43.8,30.09,WSW,256,1.0,3.0,68,0.00,,CLR,0.00,0.00,VWS V14.01,2013-04-15 09:17:00,
2013-04-15 05:22:00,54.6,44.3,30.09,WSW,256,0.0,0.0,68,0.00,,CLR,0.00,0.00,VWS V14.01,2013-04-15 09:22:00,
2013-04-15 05:27:00,54.4,45.6,30.09,WSW,256,0.0,1.0,72,0.00,,CLR,0.00,0.00,VWS V14.01,2013-04-15 09:27:00,
2013-04-15 05:32:00,54.1,45.7,30.09,WSW,256,0.0,0.0,73,0.00,,CLR,0.00,0.00,VWS V14.01,2013-04-15 09:32:00,
2013-04-15 05:37:00,53.8,46.1,30.09,WSW,256,0.0,0.0,75,0.00,,CLR,0.00,0.00,VWS V14.01,2013-04-15 09:37:00,
2013-04-15 05:42:00,53.5,46.1,30.09,WSW,256,0.0,0.0,76,0.00,,CLR,0.00,0.00,VWS V14.01,2013-04-15 09:42:00,
2013-04-15 05:48:00,53.5,46.5,30.09,WSW,256,0.0,0.0,77,0.00,,CLR,0.00,0.00,VWS V14.01,2013-04-15 09:48:00,
2013-04-15 05:53:00,53.2,46.5,30.09,WSW,241,1.0,2.0,78,0.00,,CLR,0.00,0.00,VWS V14.01,2013-04-15 09:53:00,
2013-04-15 05:58:00,53.4,46.4,30.09,West,274,0.0,7.0,77,0.00,,CLR,0.00,0.00,VWS V14.01,2013-04-15 09:58:00,
2013-04-15 06:03:00,53.2,46.2,30.10,West,274,0.0,0.0,77,0.00,,CLR,0.00,0.00,VWS V14.01,2013-04-15 10:03:00,
2013-04-15 06:08:00,53.4,46.4,30.10,West,278,0.0,2.0,77,0.00,,CLR,0.00,0.00,VWS V14.01,2013-04-15 10:08:00,
2013-04-15 06:13:00,53.4,46.4,30.10,West,278,0.0,0.0,77,0.00,,CLR,0.00,0.00,VWS V14.01,2013-04-15 10:13:00,
2013-04-15 06:18:00,53.4,46.0,30.11,West,278,0.0,0.0,76,0.00,,CLR,0.00,0.00,VWS V14.01,2013-04-15 10:18:00,
2013-04-15 06:23:00,53.2,45.8,30.11,West,278,0.0,0.0,76,0.00,,CLR,0.00,0.00,VWS V14.01,2013-04-15 10:23:00,
2013-04-15 06:28:00,53.1,46.1,30.11,West,278,0.0,0.0,77,0.00,,CLR,0.00,0.00,VWS V14.01,2013-04-15 10:28:00,
2013-04-15 06:33:00,53.1,46.4,30.12,West,278,0.0,0.0,78,0.01,,CLR,0.01,0.00,VWS V14.01,2013-04-15 10:33:00,
2013-04-15 06:38:00,52.9,46.6,30.12,West,278,0.0,0.0,79,0.01,,CLR,0.01,0.00,VWS V14.01,2013-04-15 10:38:00,
2013-04-15 06:43:00,52.9,46.9,30.12,West,277,0.0,0.0,80,0.01,,CLR,0.01,0.00,VWS V14.01,2013-04-15 10:43:00,
2013-04-15 06:48:00,53.1,47.1,30.12,WSW,256,1.0,2.0,80,0.01,,CLR,0.01,5.00,VWS V14.01,2013-04-15 10:48:00,
2013-04-15 06:53:00,53.2,47.5,30.12,WSW,256,0.0,0.0,81,0.01,,CLR,0.01,9.00,VWS V14.01,2013-04-15 10:53:00,
2013-04-15 06:58:00,53.1,47.8,30.12,WSW,256,0.0,0.0,82,0.01,,CLR,0.01,14.00,VWS V14.01,2013-04-15 10:58:00,
2013-04-15 07:03:00,53.1,48.1,30.13,WSW,256,0.0,0.0,83,0.01,,CLR,0.01,21.00,VWS V14.01,2013-04-15 11:03:00,
2013-04-15 07:08:00,53.1,48.1,30.13,WSW,256,0.0,0.0,83,0.02,,CLR,0.02,32.00,VWS V14.01,2013-04-15 11:08:00,
2013-04-15 07:13:00,53.2,48.5,30.13,South,191,0.0,2.0,84,0.02,,CLR,0.02,35.00,VWS V14.01,2013-04-15 11:13:00,
2013-04-15 07:19:00,53.2,48.5,30.13,SSW,208,0.0,2.0,84,0.02,,CLR,0.02,33.00,VWS V14.01,2013-04-15 11:19:00,
2013-04-15 07:24:00,53.2,48.5,30.13,SSW,208,0.0,0.0,84,0.02,,CLR,0.02,32.00,VWS V14.01,2013-04-15 11:24:00,
2013-04-15 07:29:00,53.4,48.7,30.13,SSW,208,0.0,0.0,84,0.02,,CLR,0.02,30.00,VWS V14.01,2013-04-15 11:29:00,
2013-04-15 07:34:00,53.1,49.0,30.14,SSW,208,0.0,0.0,86,0.01,,CLR,0.02,30.00,VWS V14.01,2013-04-15 11:34:00,
2013-04-15 07:39:00,53.1,49.3,30.14,SSW,208,0.0,0.0,87,0.01,,CLR,0.02,28.00,VWS V14.01,2013-04-15 11:39:00,
2013-04-15 07:45:00,52.9,49.5,30.14,SSW,208,0.0,0.0,88,0.01,,CLR,0.02,25.00,VWS V14.01,2013-04-15 11:45:00,
2013-04-15 07:50:00,52.9,49.5,30.14,SSW,208,0.0,2.0,88,0.01,,CLR,0.02,23.00,VWS V14.01,2013-04-15 11:50:00,
2013-04-15 07:55:00,52.9,49.5,30.14,SW,230,2.0,5.0,88,0.01,,CLR,0.02,46.00,VWS V14.01,2013-04-15 11:55:00,
2013-04-15 08:00:00,52.9,49.5,30.14,WSW,243,1.0,5.0,88,0.01,,CLR,0.02,70.00,VWS V14.01,2013-04-15 12:00:00,
2013-04-15 08:05:00,53.2,49.7,30.14,SW,216,0.0,2.0,88,0.01,,CLR,0.02,60.00,VWS V14.01,2013-04-15 12:05:00,
2013-04-15 08:10:00,53.4,49.9,30.14,West,267,0.0,2.0,88,0.01,,CLR,0.02,65.00,VWS V14.01,2013-04-15 12:10:00,
2013-04-15 08:15:00,53.5,50.0,30.14,West,265,0.0,0.0,88,0.00,,CLR,0.02,62.00,VWS V14.01,2013-04-15 12:15:00,
2013-04-15 08:21:00,53.7,50.2,30.14,West,265,0.0,0.0,88,0.00,,CLR,0.02,67.00,VWS V14.01,2013-04-15 12:21:00,
2013-04-15 08:26:00,53.7,50.5,30.14,West,267,0.0,0.0,89,0.00,,CLR,0.02,79.00,VWS V14.01,2013-04-15 12:26:00,
2013-04-15 08:31:00,53.7,50.2,30.14,West,267,0.0,0.0,88,0.00,,CLR,0.02,90.00,VWS V14.01,2013-04-15 12:31:00,
2013-04-15 08:37:00,53.7,50.2,30.14,West,267,0.0,0.0,88,0.00,,CLR,0.02,91.00,VWS V14.01,2013-04-15 12:37:00,
2013-04-15 08:42:00,53.8,50.3,30.14,West,267,0.0,0.0,88,0.00,,CLR,0.02,106.00,VWS V14.01,2013-04-15 12:42:00,
2013-04-15 08:47:00,54.0,50.5,30.14,West,265,0.0,0.0,88,0.00,,CLR,0.02,128.00,VWS V14.01,2013-04-15 12:47:00,
2013-04-15 08:52:00,54.1,50.6,30.14,West,267,0.0,0.0,88,0.00,,CLR,0.02,127.00,VWS V14.01,2013-04-15 12:52:00,
2013-04-15 08:57:00,54.3,50.8,30.14,West,265,0.0,0.0,88,0.00,,CLR,0.02,125.00,VWS V14.01,2013-04-15 12:57:00,
2013-04-15 09:02:00,54.4,50.6,30.14,West,267,0.0,0.0,87,0.00,,CLR,0.02,114.00,VWS V14.01,2013-04-15 13:02:00,
2013-04-15 09:07:00,54.7,50.6,30.14,West,265,1.0,1.0,86,0.00,,CLR,0.02,107.00,VWS V14.01,2013-04-15 13:07:00,
2013-04-15 09:12:00,54.7,49.7,30.14,WNW,284,0.0,2.0,83,0.00,,CLR,0.02,118.00,VWS V14.01,2013-04-15 13:12:00,
2013-04-15 09:18:00,55.0,49.3,30.15,WSW,241,4.0,8.0,81,0.00,,CLR,0.02,130.00,VWS V14.01,2013-04-15 13:18:00,
2013-04-15 09:23:00,55.3,49.2,30.15,WSW,257,0.0,5.0,80,0.00,,CLR,0.02,106.00,VWS V14.01,2013-04-15 13:23:00,
2013-04-15 09:28:00,55.5,49.4,30.15,West,263,3.0,5.0,80,0.00,,CLR,0.02,90.00,VWS V14.01,2013-04-15 13:28:00,
2013-04-15 09:33:00,55.5,49.1,30.14,WSW,243,2.0,2.0,79,0.00,,CLR,0.02,88.00,VWS V14.01,2013-04-15 13:33:00,
2013-04-15 09:39:00,55.6,49.2,30.14,WSW,257,0.0,5.0,79,0.00,,CLR,0.02,100.00,VWS V14.01,2013-04-15 13:39:00,
2013-04-15 09:44:00,55.7,49.3,30.14,NW,316,0.0,3.0,79,0.00,,CLR,0.02,93.00,VWS V14.01,2013-04-15 13:44:00,
2013-04-15 09:49:00,55.9,49.5,30.15,West,267,2.0,4.0,79,0.00,,CLR,0.02,99.00,VWS V14.01,2013-04-15 13:49:00,
2013-04-15 09:54:00,55.9,49.5,30.15,West,272,0.0,0.0,79,0.00,,CLR,0.02,121.00,VWS V14.01,2013-04-15 13:54:00,
2013-04-15 09:59:00,56.0,49.6,30.15,West,272,0.0,1.0,79,0.00,,CLR,0.02,113.00,VWS V14.01,2013-04-15 13:59:00,
2013-04-15 10:04:00,56.0,49.2,30.15,SW,234,0.0,2.0,78,0.00,,CLR,0.02,109.00,VWS V14.01,2013-04-15 14:04:00,
2013-04-15 10:09:00,56.2,49.1,30.15,WSW,241,1.0,6.0,77,0.00,,CLR,0.02,125.00,VWS V14.01,2013-04-15 14:09:00,
2013-04-15 10:14:00,56.2,49.1,30.15,West,277,3.0,6.0,77,0.00,,CLR,0.02,134.00,VWS V14.01,2013-04-15 14:14:00,
2013-04-15 10:20:00,56.3,48.8,30.15,WNW,285,0.0,6.0,76,0.00,,CLR,0.02,158.00,VWS V14.01,2013-04-15 14:20:00,
2013-04-15 10:25:00,56.6,49.5,30.15,WNW,288,2.0,4.0,77,0.00,,CLR,0.02,146.00,VWS V14.01,2013-04-15 14:25:00,
2013-04-15 10:30:00,56.6,49.1,30.15,West,268,6.0,6.0,76,0.00,,CLR,0.02,134.00,VWS V14.01,2013-04-15 14:30:00,
2013-04-15 10:35:00,56.5,48.7,30.15,SW,233,2.0,8.0,75,0.00,,CLR,0.02,144.00,VWS V14.01,2013-04-15 14:35:00,
2013-04-15 10:40:00,56.6,48.8,30.15,SW,220,0.0,8.0,75,0.00,,CLR,0.02,155.00,VWS V14.01,2013-04-15 14:40:00,
2013-04-15 10:45:00,56.8,49.3,30.15,SSW,208,3.0,6.0,76,0.00,,CLR,0.02,165.00,VWS V14.01,2013-04-15 14:45:00,
2013-04-15 10:51:00,56.8,48.2,30.16,SSW,202,3.0,11.0,73,0.00,,CLR,0.02,183.00,VWS V14.01,2013-04-15 14:51:00,
2013-04-15 10:56:00,57.0,48.8,30.16,West,277,5.0,7.0,74,0.00,,CLR,0.02,176.00,VWS V14.01,2013-04-15 14:56:00,
2013-04-15 11:02:00,57.0,48.8,30.16,North,0,2.0,7.0,74,0.00,,CLR,0.02,165.00,VWS V14.01,2013-04-15 15:02:00,
2013-04-15 11:07:00,57.1,48.9,30.16,SW,236,2.0,8.0,74,0.00,,CLR,0.02,162.00,VWS V14.01,2013-04-15 15:07:00,
2013-04-15 11:12:00,57.1,48.5,30.16,WNW,288,3.0,10.0,73,0.00,,CLR,0.02,202.00,VWS V14.01,2013-04-15 15:12:00,
2013-04-15 11:17:00,57.4,48.8,30.17,SSW,198,3.0,7.0,73,0.00,,CLR,0.02,283.00,VWS V14.01,2013-04-15 15:17:00,
2013-04-15 11:22:00,57.9,49.3,30.17,SW,220,6.0,6.0,73,0.00,,CLR,0.02,245.00,VWS V14.01,2013-04-15 15:22:00,
2013-04-15 11:28:00,58.0,49.4,30.17,North,0,6.0,11.0,73,0.00,,CLR,0.02,267.00,VWS V14.01,2013-04-15 15:28:00,
2013-04-15 11:33:00,58.2,49.2,30.17,SW,216,1.0,5.0,72,0.00,,CLR,0.02,211.00,VWS V14.01,2013-04-15 15:33:00,
2013-04-15 11:38:00,58.2,49.2,30.17,West,270,2.0,11.0,72,0.00,,CLR,0.02,204.00,VWS V14.01,2013-04-15 15:38:00,
2013-04-15 11:43:00,58.3,49.3,30.17,West,270,2.0,2.0,72,0.00,,CLR,0.02,213.00,VWS V14.01,2013-04-15 15:43:00,
2013-04-15 11:48:00,58.3,48.6,30.17,South,191,3.0,8.0,70,0.00,,CLR,0.02,213.00,VWS V14.01,2013-04-15 15:48:00,
2013-04-15 11:53:00,58.3,47.8,30.17,WSW,253,6.0,7.0,68,0.00,,CLR,0.02,267.00,VWS V14.01,2013-04-15 15:53:00,
2013-04-15 11:58:00,58.6,48.1,30.17,SW,224,2.0,7.0,68,0.00,,CLR,0.02,276.00,VWS V14.01,2013-04-15 15:58:00,
2013-04-15 12:03:00,59.1,49.0,30.16,NW,318,2.0,5.0,69,0.00,,CLR,0.02,334.00,VWS V14.01,2013-04-15 16:03:00,
2013-04-15 12:09:00,59.4,48.5,30.16,SW,222,6.0,11.0,67,0.00,,CLR,0.02,264.00,VWS V14.01,2013-04-15 16:09:00,
2013-04-15 12:14:00,59.5,48.5,30.16,WSW,247,0.0,3.0,67,0.00,,CLR,0.02,153.00,VWS V14.01,2013-04-15 16:14:00,
2013-04-15 12:19:00,59.4,48.5,30.16,SSW,213,8.0,10.0,67,0.00,,CLR,0.02,100.00,VWS V14.01,2013-04-15 16:19:00,
2013-04-15 12:24:00,59.2,47.9,30.16,SSW,212,5.0,5.0,66,0.00,,CLR,0.02,114.00,VWS V14.01,2013-04-15 16:24:00,
2013-04-15 12:29:00,59.1,47.8,30.16,WSW,258,6.0,9.0,66,0.00,,CLR,0.02,120.00,VWS V14.01,2013-04-15 16:29:00,
2013-04-15 12:35:00,58.9,47.6,30.17,SW,220,1.0,11.0,66,0.00,,CLR,0.02,127.00,VWS V14.01,2013-04-15 16:35:00,
2013-04-15 12:40:00,58.9,47.6,30.17,West,271,1.0,11.0,66,0.00,,CLR,0.02,121.00,VWS V14.01,2013-04-15 16:40:00,
2013-04-15 12:45:00,58.8,47.5,30.17,SW,236,3.0,11.0,66,0.00,,CLR,0.02,135.00,VWS V14.01,2013-04-15 16:45:00,
2013-04-15 12:50:00,58.6,47.7,30.17,WSW,247,7.0,11.0,67,0.00,,CLR,0.02,130.00,VWS V14.01,2013-04-15 16:50:00,
2013-04-15 12:55:00,58.5,47.6,30.17,SW,224,7.0,13.0,67,0.00,,CLR,0.02,113.00,VWS V14.01,2013-04-15 16:55:00,
2013-04-15 13:00:00,58.3,47.4,30.17,SW,232,4.0,14.0,67,0.00,,CLR,0.02,127.00,VWS V14.01,2013-04-15 17:00:00,
2013-04-15 13:05:00,58.2,47.3,30.17,SW,215,5.0,7.0,67,0.00,,CLR,0.02,114.00,VWS V14.01,2013-04-15 17:05:00,
2013-04-15 13:10:00,58.2,47.7,30.17,SW,229,6.0,17.0,68,0.00,,CLR,0.02,125.00,VWS V14.01,2013-04-15 17:10:00,
2013-04-15 13:15:00,58.2,47.3,30.17,WSW,237,7.0,7.0,67,0.00,,CLR,0.02,194.00,VWS V14.01,2013-04-15 17:15:00,
2013-04-15 13:21:00,58.3,47.0,30.17,West,264,2.0,12.0,66,0.00,,CLR,0.02,220.00,VWS V14.01,2013-04-15 17:21:00,
2013-04-15 13:22:00,58.3,46.6,30.17,WSW,237,6.0,12.0,65,0.00,,CLR,0.02,220.00,VWS V14.01,2013-04-15 17:22:00,
2013-04-15 13:25:00,58.5,46.8,30.17,WSW,250,5.0,8.0,65,0.00,,CLR,0.02,190.00,VWS V14.01,2013-04-15 17:25:00,
2013-04-15 13:30:00,58.6,46.9,30.17,SW,229,8.0,12.0,65,0.00,,CLR,0.02,223.00,VWS V14.01,2013-04-15 17:30:00,
2013-04-15 13:35:00,58.8,46.7,30.17,NW,318,1.0,10.0,64,0.00,,CLR,0.02,201.00,VWS V14.01,2013-04-15 17:35:00,
2013-04-15 13:40:00,58.9,46.3,30.17,WNW,282,3.0,10.0,63,0.00,,CLR,0.02,197.00,VWS V14.01,2013-04-15 17:40:00,
2013-04-15 13:45:00,59.2,47.0,30.17,SW,230,4.0,6.0,64,0.00,,CLR,0.02,194.00,VWS V14.01,2013-04-15 17:45:00,
2013-04-15 13:50:00,59.4,46.4,30.17,WSW,240,0.0,6.0,62,0.00,,CLR,0.02,199.00,VWS V14.01,2013-04-15 17:50:00,
2013-04-15 13:55:00,59.5,46.9,30.17,SW,219,5.0,7.0,63,0.00,,CLR,0.02,234.00,VWS V14.01,2013-04-15 17:55:00,
2013-04-15 14:00:00,59.7,46.2,30.17,WSW,256,2.0,12.0,61,0.00,,CLR,0.02,223.00,VWS V14.01,2013-04-15 18:00:00,
2013-04-15 14:05:00,60.0,47.0,30.17,West,264,3.0,6.0,62,0.00,,CLR,0.02,216.00,VWS V14.01,2013-04-15 18:05:00,
2013-04-15 14:10:00,60.2,46.3,30.17,WSW,258,3.0,12.0,60,0.00,,CLR,0.02,187.00,VWS V14.01,2013-04-15 18:10:00,
2013-04-15 14:15:00,60.2,45.8,30.17,SW,236,0.0,12.0,59,0.00,,CLR,0.02,204.00,VWS V14.01,2013-04-15 18:15:00,
2013-04-15 14:21:00,60.3,45.9,30.17,SW,223,1.0,12.0,59,0.00,,CLR,0.02,192.00,VWS V14.01,2013-04-15 18:21:00,
2013-04-15 14:26:00,60.5,46.6,30.17,West,274,0.0,8.0,60,0.00,,CLR,0.02,194.00,VWS V14.01,2013-04-15 18:26:00,
2013-04-15 14:29:00,60.5,47.0,30.17,West,264,3.0,8.0,61,0.00,,CLR,0.02,179.00,VWS V14.01,2013-04-15 18:29:00,
2013-04-15 14:30:00,60.5,45.7,30.17,West,281,5.0,11.0,58,0.00,,CLR,0.02,174.00,VWS V14.01,2013-04-15 18:30:00,
2013-04-15 14:31:00,60.5,45.7,30.17,WNW,292,6.0,11.0,58,0.00,,CLR,0.02,174.00,VWS V14.01,2013-04-15 18:31:00,
2013-04-15 14:36:00,60.6,46.2,30.17,NW,305,5.0,5.0,59,0.00,,CLR,0.02,144.00,VWS V14.01,2013-04-15 18:36:00,
2013-04-15 14:41:00,60.6,46.7,30.17,West,270,3.0,9.0,60,0.00,,CLR,0.02,188.00,VWS V14.01,2013-04-15 18:41:00,
2013-04-15 14:47:00,60.6,45.8,30.16,SSW,196,5.0,12.0,58,0.00,,CLR,0.02,283.00,VWS V14.01,2013-04-15 18:47:00,
2013-04-15 14:52:00,61.1,46.7,30.16,NW,304,2.0,12.0,59,0.00,,CLR,0.02,447.00,VWS V14.01,2013-04-15 18:52:00,
2013-04-15 14:57:00,61.9,47.0,30.16,West,260,6.0,12.0,58,0.00,,CLR,0.02,477.00,VWS V14.01,2013-04-15 18:57:00,
2013-04-15 15:02:00,62.9,47.0,30.15,WSW,254,5.0,12.0,56,0.00,,CLR,0.02,475.00,VWS V14.01,2013-04-15 19:02:00,
2013-04-15 15:07:00,63.2,46.8,30.15,SW,232,7.0,16.0,55,0.00,,CLR,0.02,482.00,VWS V14.01,2013-04-15 19:07:00,
2013-04-15 15:12:00,63.3,47.3,30.15,South,188,6.0,16.0,56,0.00,,CLR,0.02,431.00,VWS V14.01,2013-04-15 19:12:00,
2013-04-15 15:17:00,63.5,45.6,30.14,WSW,257,3.0,12.0,52,0.00,,CLR,0.02,554.00,VWS V14.01,2013-04-15 19:17:00,
2013-04-15 15:22:00,63.8,45.9,30.14,SW,236,7.0,8.0,52,0.00,,CLR,0.02,401.00,VWS V14.01,2013-04-15 19:22:00,
2013-04-15 15:27:00,63.8,45.9,30.14,West,275,3.0,12.0,52,0.00,,CLR,0.02,259.00,VWS V14.01,2013-04-15 19:27:00,
2013-04-15 15:33:00,63.5,46.6,30.14,WNW,294,6.0,14.0,54,0.00,,CLR,0.02,179.00,VWS V14.01,2013-04-15 19:33:00,
2013-04-15 15:38:00,63.2,45.8,30.14,WSW,243,7.0,14.0,53,0.00,,CLR,0.02,181.00,VWS V14.01,2013-04-15 19:38:00,
2013-04-15 15:43:00,63.0,46.1,30.14,SW,234,1.0,5.0,54,0.00,,CLR,0.02,150.00,VWS V14.01,2013-04-15 19:43:00,
2013-04-15 15:48:00,62.9,46.5,30.14,WNW,298,3.0,11.0,55,0.00,,CLR,0.02,143.00,VWS V14.01,2013-04-15 19:48:00,
2013-04-15 15:55:00,62.9,46.0,30.14,WSW,258,9.0,11.0,54,0.00,,CLR,0.02,123.00,VWS V14.01,2013-04-15 19:55:00,
2013-04-15 15:57:00,62.7,45.8,30.14,WSW,244,3.0,13.0,54,0.00,,CLR,0.02,109.00,VWS V14.01,2013-04-15 19:57:00,
2013-04-15 15:58:00,62.7,45.8,30.14,South,169,6.0,13.0,54,0.00,,CLR,0.02,106.00,VWS V14.01,2013-04-15 19:58:00,
2013-04-15 16:02:00,62.5,45.7,30.14,West,261,4.0,13.0,54,0.00,,CLR,0.02,99.00,VWS V14.01,2013-04-15 20:02:00,
2013-04-15 16:03:00,62.5,45.7,30.14,WSW,246,2.0,5.0,54,0.00,,CLR,0.02,99.00,VWS V14.01,2013-04-15 20:03:00,
2013-04-15 16:04:00,62.5,45.7,30.14,WSW,239,6.0,12.0,54,0.00,,CLR,0.02,99.00,VWS V14.01,2013-04-15 20:04:00,
2013-04-15 16:09:00,62.4,45.5,30.14,SW,233,3.0,12.0,54,0.00,,CLR,0.02,93.00,VWS V14.01,2013-04-15 20:09:00,
2013-04-15 16:14:00,62.4,45.5,30.14,SSW,210,0.0,10.0,54,0.00,,CLR,0.02,104.00,VWS V14.01,2013-04-15 20:14:00,
2013-04-15 16:19:00,62.2,44.9,30.14,SSW,212,6.0,17.0,53,0.00,,CLR,0.02,121.00,VWS V14.01,2013-04-15 20:19:00,
2013-04-15 16:24:00,62.2,45.4,30.14,SW,236,2.0,8.0,54,0.00,,CLR,0.02,125.00,VWS V14.01,2013-04-15 20:24:00,
2013-04-15 16:29:00,62.2,45.4,30.14,South,181,6.0,10.0,54,0.00,,CLR,0.02,123.00,VWS V14.01,2013-04-15 20:29:00,
2013-04-15 16:34:00,62.2,45.8,30.14,SW,220,3.0,10.0,55,0.00,,CLR,0.02,139.00,VWS V14.01,2013-04-15 20:34:00,
2013-04-15 16:39:00,62.4,45.5,30.14,NW,308,2.0,12.0,54,0.00,,CLR,0.02,130.00,VWS V14.01,2013-04-15 20:39:00,
2013-04-15 16:44:00,62.4,45.5,30.14,West,268,1.0,6.0,54,0.00,,CLR,0.02,114.00,VWS V14.01,2013-04-15 20:44:00,
2013-04-15 16:49:00,62.5,45.7,30.14,WNW,287,1.0,6.0,54,0.00,,CLR,0.02,121.00,VWS V14.01,2013-04-15 20:49:00,
2013-04-15 16:54:00,62.5,46.6,30.14,WNW,284,0.0,3.0,56,0.00,,CLR,0.02,102.00,VWS V14.01,2013-04-15 20:54:00,
2013-04-15 16:59:00,62.5,46.1,30.14,West,261,0.0,3.0,55,0.00,,CLR,0.02,104.00,VWS V14.01,2013-04-15 20:59:00,
2013-04-15 17:04:00,62.7,46.8,30.14,West,268,2.0,8.0,56,0.00,,CLR,0.02,130.00,VWS V14.01,2013-04-15 21:04:00,
2013-04-15 17:10:00,62.7,46.8,30.14,WSW,250,1.0,8.0,56,0.00,,CLR,0.02,150.00,VWS V14.01,2013-04-15 21:10:00,
2013-04-15 17:15:00,62.9,47.0,30.14,West,261,1.0,5.0,56,0.00,,CLR,0.02,171.00,VWS V14.01,2013-04-15 21:15:00,
2013-04-15 17:20:00,63.0,46.6,30.14,West,260,3.0,7.0,55,0.00,,CLR,0.02,143.00,VWS V14.01,2013-04-15 21:20:00,
2013-04-15 17:25:00,63.0,47.1,30.14,WSW,239,3.0,6.0,56,0.00,,CLR,0.02,155.00,VWS V14.01,2013-04-15 21:25:00,
2013-04-15 17:30:00,63.0,46.1,30.14,West,263,3.0,8.0,54,0.00,,CLR,0.02,144.00,VWS V14.01,2013-04-15 21:30:00,
2013-04-15 17:35:00,62.9,46.0,30.14,WSW,246,1.0,12.0,54,0.00,,CLR,0.02,143.00,VWS V14.01,2013-04-15 21:35:00,
2013-04-15 17:40:00,62.9,46.0,30.14,West,275,16.0,16.0,54,0.00,,CLR,0.02,135.00,VWS V14.01,2013-04-15 21:40:00,
2013-04-15 17:45:00,62.7,45.8,30.14,SW,230,5.0,11.0,54,0.00,,CLR,0.02,120.00,VWS V14.01,2013-04-15 21:45:00,
2013-04-15 17:51:00,62.7,46.3,30.14,South,178,2.0,13.0,55,0.00,,CLR,0.02,104.00,VWS V14.01,2013-04-15 21:51:00,
2013-04-15 17:56:00,62.5,45.7,30.14,WSW,237,6.0,10.0,54,0.00,,CLR,0.02,93.00,VWS V14.01,2013-04-15 21:56:00,
2013-04-15 18:01:00,62.5,46.1,30.14,WSW,250,7.0,10.0,55,0.00,,CLR,0.02,91.00,VWS V14.01,2013-04-15 22:01:00,
2013-04-15 18:06:00,62.4,45.5,30.14,WSW,251,0.0,9.0,54,0.00,,CLR,0.02,99.00,VWS V14.01,2013-04-15 22:06:00,
2013-04-15 18:11:00,62.4,46.0,30.14,West,260,3.0,9.0,55,0.00,,CLR,0.02,95.00,VWS V14.01,2013-04-15 22:11:00,
2013-04-15 18:16:00,62.4,45.5,30.14,West,261,2.0,7.0,54,0.00,,CLR,0.02,70.00,VWS V14.01,2013-04-15 22:16:00,
2013-04-15 18:21:00,62.2,45.8,30.15,SW,230,1.0,11.0,55,0.00,,CLR,0.02,58.00,VWS V14.01,2013-04-15 22:21:00,
2013-04-15 18:26:00,62.2,45.8,30.15,WSW,243,3.0,8.0,55,0.00,,CLR,0.02,51.00,VWS V14.01,2013-04-15 22:26:00,
2013-04-15 18:31:00,62.1,46.2,30.15,West,263,3.0,10.0,56,0.00,,CLR,0.02,44.00,VWS V14.01,2013-04-15 22:31:00,
2013-04-15 18:36:00,61.9,46.0,30.15,WSW,251,1.0,5.0,56,0.00,,CLR,0.02,40.00,VWS V14.01,2013-04-15 22:36:00,
2013-04-15 18:41:00,61.9,47.0,30.15,SW,215,10.0,10.0,58,0.00,,CLR,0.02,39.00,VWS V14.01,2013-04-15 22:41:00,
2013-04-15 18:46:00,61.7,46.8,30.16,West,263,10.0,12.0,58,0.00,,CLR,0.02,37.00,VWS V14.01,2013-04-15 22:46:00,
2013-04-15 18:51:00,61.6,46.7,30.16,WSW,256,2.0,12.0,58,0.00,,CLR,0.02,21.00,VWS V14.01,2013-04-15 22:51:00,
2013-04-15 18:56:00,61.4,46.5,30.16,WSW,244,5.0,13.0,58,0.00,,CLR,0.02,18.00,VWS V14.01,2013-04-15 22:56:00,
2013-04-15 19:01:00,61.4,46.5,30.16,WSW,246,3.0,13.0,58,0.00,,CLR,0.02,16.00,VWS V14.01,2013-04-15 23:01:00,
2013-04-15 19:06:00,61.3,46.9,30.16,WSW,246,4.0,6.0,59,0.00,,CLR,0.02,14.00,VWS V14.01,2013-04-15 23:06:00,
2013-04-15 19:11:00,61.3,46.9,30.16,SSW,192,2.0,6.0,59,0.00,,CLR,0.02,9.00,VWS V14.01,2013-04-15 23:11:00,
2013-04-15 19:16:00,61.1,47.1,30.16,WSW,250,6.0,11.0,60,0.00,,CLR,0.02,7.00,VWS V14.01,2013-04-15 23:16:00,
2013-04-15 19:22:00,61.0,47.0,30.16,WSW,251,2.0,11.0,60,0.00,,CLR,0.02,7.00,VWS V14.01,2013-04-15 23:22:00,
2013-04-15 19:27:00,61.0,47.0,30.16,WNW,298,2.0,6.0,60,0.00,,CLR,0.02,5.00,VWS V14.01,2013-04-15 23:27:00,
2013-04-15 19:32:00,60.8,47.3,30.16,West,274,3.0,11.0,61,0.00,,CLR,0.02,5.00,VWS V14.01,2013-04-15 23:32:00,
2013-04-15 19:37:00,60.8,47.3,30.16,WSW,240,0.0,7.0,61,0.00,,CLR,0.02,5.00,VWS V14.01,2013-04-15 23:37:00,
2013-04-15 19:42:00,60.6,47.1,30.16,WNW,288,1.0,1.0,61,0.00,,CLR,0.02,0.00,VWS V14.01,2013-04-15 23:42:00,
2013-04-15 19:47:00,60.5,47.4,30.16,West,268,5.0,7.0,62,0.00,,CLR,0.02,0.00,VWS V14.01,2013-04-15 23:47:00,
2013-04-15 19:52:00,60.3,47.7,30.16,SW,234,0.0,0.0,63,0.00,,CLR,0.02,0.00,VWS V14.01,2013-04-15 23:52:00,
2013-04-15 19:57:00,60.3,47.7,30.16,West,275,3.0,7.0,63,0.00,,CLR,0.02,0.00,VWS V14.01,2013-04-15 23:57:00,
2013-04-15 20:03:00,60.2,47.6,30.17,WSW,253,1.0,3.0,63,0.00,,CLR,0.02,0.00,VWS V14.01,2013-04-16 00:03:00,
2013-04-15 20:08:00,60.0,47.8,30.17,SW,234,6.0,6.0,64,0.00,,CLR,0.02,0.00,VWS V14.01,2013-04-16 00:08:00,
2013-04-15 20:13:00,59.9,48.1,30.17,West,265,4.0,6.0,65,0.00,,CLR,0.02,0.00,VWS V14.01,2013-04-16 00:13:00,
2013-04-15 20:18:00,59.7,48.3,30.17,WNW,294,5.0,8.0,66,0.00,,CLR,0.02,0.00,VWS V14.01,2013-04-16 00:18:00,
2013-04-15 20:23:00,59.5,48.5,30.17,SW,227,2.0,5.0,67,0.00,,CLR,0.02,0.00,VWS V14.01,2013-04-16 00:23:00,
2013-04-15 20:28:00,59.4,48.5,30.17,West,263,2.0,6.0,67,0.00,,CLR,0.02,0.00,VWS V14.01,2013-04-16 00:28:00,
2013-04-15 20:33:00,59.2,48.7,30.17,WNW,285,3.0,7.0,68,0.00,,CLR,0.02,0.00,VWS V14.01,2013-04-16 00:33:00,
2013-04-15 20:38:00,59.2,49.0,30.17,WSW,241,2.0,7.0,69,0.00,,CLR,0.02,0.00,VWS V14.01,2013-04-16 00:38:00,
2013-04-15 20:43:00,58.9,48.8,30.17,WNW,282,1.0,5.0,69,0.00,,CLR,0.02,0.00,VWS V14.01,2013-04-16 00:43:00,
2013-04-15 20:48:00,58.9,49.2,30.17,SSW,202,3.0,7.0,70,0.00,,CLR,0.02,0.00,VWS V14.01,2013-04-16 00:48:00,
2013-04-15 20:53:00,58.8,49.0,30.17,WSW,253,1.0,5.0,70,0.00,,CLR,0.02,0.00,VWS V14.01,2013-04-16 00:53:00,
2013-04-15 20:59:00,58.6,49.2,30.17,West,277,0.0,7.0,71,0.00,,CLR,0.02,0.00,VWS V14.01,2013-04-16 00:59:00,
2013-04-15 21:04:00,58.6,49.2,30.17,WSW,250,0.0,6.0,71,0.00,,CLR,0.02,0.00,VWS V14.01,2013-04-16 01:04:00,
2013-04-15 21:09:00,58.5,49.5,30.17,WSW,246,0.0,8.0,72,0.00,,CLR,0.02,0.00,VWS V14.01,2013-04-16 01:09:00,
2013-04-15 21:14:00,58.5,49.5,30.17,West,280,2.0,7.0,72,0.00,,CLR,0.02,0.00,VWS V14.01,2013-04-16 01:14:00,
2013-04-15 21:19:00,58.5,49.5,30.17,WSW,243,3.0,7.0,72,0.00,,CLR,0.02,0.00,VWS V14.01,2013-04-16 01:19:00,
2013-04-15 21:24:00,58.3,49.3,30.17,WSW,257,6.0,6.0,72,0.00,,CLR,0.02,0.00,VWS V14.01,2013-04-16 01:24:00,
2013-04-15 21:29:00,58.3,49.3,30.17,SW,234,1.0,6.0,72,0.00,,CLR,0.02,0.00,VWS V14.01,2013-04-16 01:29:00,
2013-04-15 21:34:00,58.3,49.3,30.18,West,272,0.0,3.0,72,0.00,,CLR,0.02,0.00,VWS V14.01,2013-04-16 01:34:00,
2013-04-15 21:40:00,58.3,49.3,30.18,SW,216,1.0,3.0,72,0.00,,CLR,0.02,0.00,VWS V14.01,2013-04-16 01:40:00,
2013-04-15 21:45:00,58.3,49.7,30.18,West,274,0.0,6.0,73,0.00,,CLR,0.02,0.00,VWS V14.01,2013-04-16 01:45:00,
2013-04-15 21:50:00,58.3,49.7,30.18,NW,315,6.0,6.0,73,0.00,,CLR,0.02,0.00,VWS V14.01,2013-04-16 01:50:00,
2013-04-15 21:55:00,58.3,49.3,30.18,WSW,253,1.0,3.0,72,0.00,,CLR,0.02,0.00,VWS V14.01,2013-04-16 01:55:00,
2013-04-15 22:00:00,58.3,49.7,30.18,WSW,244,0.0,6.0,73,0.00,,CLR,0.02,0.00,VWS V14.01,2013-04-16 02:00:00,
2013-04-15 22:05:00,58.3,49.7,30.19,West,277,0.0,3.0,73,0.00,,CLR,0.02,0.00,VWS V14.01,2013-04-16 02:05:00,
2013-04-15 22:10:00,58.3,49.3,30.19,West,277,1.0,3.0,72,0.00,,CLR,0.02,0.00,VWS V14.01,2013-04-16 02:10:00,
2013-04-15 22:15:00,58.3,49.3,30.19,WSW,239,0.0,2.0,72,0.00,,CLR,0.02,0.00,VWS V14.01,2013-04-16 02:15:00,
2013-04-15 22:20:00,58.3,49.7,30.19,WSW,251,0.0,3.0,73,0.00,,CLR,0.02,0.00,VWS V14.01,2013-04-16 02:20:00,
2013-04-15 22:25:00,58.3,49.7,30.19,West,274,1.0,3.0,73,0.00,,CLR,0.02,0.00,VWS V14.01,2013-04-16 02:25:00,
2013-04-15 22:30:00,58.3,49.7,30.19,SW,232,2.0,7.0,73,0.00,,CLR,0.02,0.00,VWS V14.01,2013-04-16 02:30:00,
2013-04-15 22:35:00,58.5,49.5,30.19,West,275,5.0,11.0,72,0.00,,CLR,0.02,0.00,VWS V14.01,2013-04-16 02:35:00,
2013-04-15 22:40:00,58.6,49.6,30.19,WSW,240,2.0,11.0,72,0.00,,CLR,0.02,0.00,VWS V14.01,2013-04-16 02:40:00,
2013-04-15 22:45:00,58.6,49.6,30.19,WSW,253,9.0,9.0,72,0.00,,CLR,0.02,0.00,VWS V14.01,2013-04-16 02:45:00,
2013-04-15 22:51:00,58.6,49.6,30.19,West,265,11.0,13.0,72,0.00,,CLR,0.02,0.00,VWS V14.01,2013-04-16 02:51:00,
2013-04-15 22:56:00,58.6,49.6,30.19,West,265,0.0,8.0,72,0.00,,CLR,0.02,0.00,VWS V14.01,2013-04-16 02:56:00,
2013-04-15 23:01:00,58.5,49.9,30.19,WSW,243,4.0,8.0,73,0.00,,CLR,0.02,0.00,VWS V14.01,2013-04-16 03:01:00,
2013-04-15 23:06:00,58.5,49.9,30.19,SW,216,3.0,10.0,73,0.00,,CLR,0.02,0.00,VWS V14.01,2013-04-16 03:06:00,
2013-04-15 23:11:00,58.5,49.9,30.19,WSW,250,6.0,13.0,73,0.00,,CLR,0.02,0.00,VWS V14.01,2013-04-16 03:11:00,
2013-04-15 23:16:00,58.5,49.9,30.20,WSW,253,5.0,7.0,73,0.00,,CLR,0.02,0.00,VWS V14.01,2013-04-16 03:16:00,
2013-04-15 23:21:00,58.5,49.9,30.20,West,263,2.0,10.0,73,0.00,,CLR,0.02,0.00,VWS V14.01,2013-04-16 03:21:00,
2013-04-15 23:26:00,58.3,50.1,30.20,WNW,299,1.0,8.0,74,0.00,,CLR,0.02,0.00,VWS V14.01,2013-04-16 03:26:00,
2013-04-15 23:32:00,58.3,50.1,30.19,WSW,248,1.0,8.0,74,0.00,,CLR,0.02,0.00,VWS V14.01,2013-04-16 03:32:00,
2013-04-15 23:37:00,58.3,50.1,30.19,WSW,253,1.0,8.0,74,0.00,,CLR,0.02,0.00,VWS V14.01,2013-04-16 03:37:00,
2013-04-15 23:42:00,58.3,50.1,30.19,SW,229,3.0,8.0,74,0.00,,CLR,0.02,0.00,VWS V14.01,2013-04-16 03:42:00,
2013-04-15 23:47:00,58.3,50.4,30.19,SSW,193,2.0,6.0,75,0.00,,CLR,0.02,0.00,VWS V14.01,2013-04-16 03:47:00,
2013-04-15 23:52:00,58.2,50.3,30.19,SSW,213,0.0,0.0,75,0.00,,CLR,0.02,0.00,VWS V14.01,2013-04-16 03:52:00,
2013-04-15 23:57:00,58.2,50.3,30.19,SW,217,6.0,8.0,75,0.00,,CLR,0.02,0.00,VWS V14.01,2013-04-16 03:57:00,